When you browse on this site, cookies collect data to enhance your experience and personalize the content and advertising you see.
Visit our Privacy Policy to learn more. By continuing to use the site, you agree to this use of cookies and data.
  • In Belgien
  • Länderverzeichnis
  • Für 7 Tage
  • Wassertemperatur
  • Satellitenkarten
  • Wetterkarte
  • Widgets
  • user-avatar
    Anmelden

    Stündliche Wetter Kostygovo

    Heute, 25 Juni, Dienstag

    Zeit Temperatur Niederschläge Wind Luftdruck Luftfeuchtigkeit
    00:00 +12°C° 0 mm 1 m/S 756 mmHg 78%
    01:00 +11°C° 0 mm 1 m/S 756 mmHg 78%
    02:00 +11°C° 0 mm 1 m/S 756 mmHg 77%
    03:00 +11°C° 0 mm 1 m/S 756 mmHg 75%
    04:00 +12°C° 0 mm 1 m/S 756 mmHg 73%
    05:00 +13°C° 0 mm 1 m/S 757 mmHg 71%
    06:00 +14°C° 0 mm 2 m/S 757 mmHg 66%
    07:00 +16°C° 0 mm 2 m/S 757 mmHg 61%
    08:00 +18°C° 0 mm 2 m/S 757 mmHg 56%
    09:00 +19°C° 0 mm 2 m/S 757 mmHg 52%
    10:00 +20°C° 0 mm 2 m/S 757 mmHg 49%
    11:00 +20°C° 0 mm 2 m/S 757 mmHg 45%
    12:00 +21°C° 0 mm 2 m/S 757 mmHg 46%
    13:00 +21°C° 0 mm 2 m/S 757 mmHg 46%
    14:00 +21°C° 0 mm 3 m/S 757 mmHg 47%
    15:00 +21°C° 0 mm 2 m/S 757 mmHg 48%
    16:00 +20°C° 0 mm 2 m/S 756 mmHg 50%
    17:00 +20°C° 0 mm 2 m/S 756 mmHg 52%
    18:00 +20°C° 0 mm 1 m/S 756 mmHg 59%
    19:00 +18°C° 0 mm 1 m/S 756 mmHg 67%
    20:00 +14°C° 0 mm 0 m/S 756 mmHg 75%
    21:00 +13°C° 0 mm 0 m/S 756 mmHg 76%
    22:00 +14°C° 0 mm 1 m/S 755 mmHg 78%
    23:00 +13°C° 0 mm 1 m/S 755 mmHg 80%

    Morgen, 26 Juni, Mittwoch

    Zeit Temperatur Niederschläge Wind Luftdruck Luftfeuchtigkeit
    00:00 +13°C° 0 mm 1 m/S 755 mmHg 80%
    01:00 +13°C° 0 mm 1 m/S 755 mmHg 80%
    02:00 +12°C° 0 mm 2 m/S 755 mmHg 79%
    03:00 +13°C° 0 mm 2 m/S 755 mmHg 77%
    04:00 +14°C° 0 mm 2 m/S 754 mmHg 75%
    05:00 +14°C° 0 mm 3 m/S 754 mmHg 73%
    06:00 +16°C° 0 mm 3 m/S 753 mmHg 72%
    07:00 +16°C° 0 mm 3 m/S 753 mmHg 71%
    08:00 +17°C° 0 mm 3 m/S 753 mmHg 71%
    09:00 +19°C° 0 mm 3 m/S 753 mmHg 62%
    10:00 +20°C° 0 mm 2 m/S 752 mmHg 53%
    11:00 +23°C° 0 mm 2 m/S 752 mmHg 45%
    12:00 +23°C° 0 mm 2 m/S 751 mmHg 46%
    13:00 +23°C° 0 mm 2 m/S 751 mmHg 47%
    14:00 +23°C° 0 mm 2 m/S 751 mmHg 48%
    15:00 +20°C° 0.1 mm 2 m/S 750 mmHg 53%
    16:00 +19°C° 0.1 mm 2 m/S 750 mmHg 58%
    17:00 +18°C° 0.1 mm 2 m/S 749 mmHg 62%
    18:00 +17°C° 0 mm 2 m/S 749 mmHg 66%
    19:00 +16°C° 0 mm 1 m/S 748 mmHg 69%
    20:00 +15°C° 0 mm 1 m/S 748 mmHg 72%
    21:00 +14°C° 0 mm 1 m/S 747 mmHg 77%
    22:00 +13°C° 0 mm 1 m/S 746 mmHg 82%
    23:00 +13°C° 0 mm 2 m/S 746 mmHg 86%

    übermorgen, 27 Juni, Donnerstag

    Zeit Temperatur Niederschläge Wind Luftdruck Luftfeuchtigkeit
    00:00 +13°C° 0.1 mm 2 m/S 745 mmHg 89%
    01:00 +13°C° 0.1 mm 2 m/S 744 mmHg 92%
    02:00 +12°C° 0.1 mm 3 m/S 743 mmHg 94%
    03:00 +12°C° 0.6 mm 3 m/S 742 mmHg 95%
    04:00 +12°C° 0.6 mm 3 m/S 741 mmHg 96%
    05:00 +12°C° 0.6 mm 4 m/S 740 mmHg 97%
    06:00 +12°C° 5.3 mm 4 m/S 739 mmHg 97%
    07:00 +12°C° 5.3 mm 5 m/S 738 mmHg 98%
    08:00 +12°C° 5.3 mm 5 m/S 737 mmHg 98%
    09:00 +13°C° 1 mm 5 m/S 736 mmHg 97%
    10:00 +14°C° 1 mm 5 m/S 735 mmHg 97%
    11:00 +14°C° 1 mm 5 m/S 734 mmHg 96%
    12:00 +14°C° 2.1 mm 5 m/S 733 mmHg 97%
    13:00 +14°C° 2.1 mm 4 m/S 733 mmHg 98%
    14:00 +14°C° 2.1 mm 4 m/S 732 mmHg 98%
    15:00 +16°C° 2.4 mm 3 m/S 732 mmHg 98%
    16:00 +16°C° 2.4 mm 3 m/S 731 mmHg 98%
    17:00 +16°C° 2.4 mm 2 m/S 731 mmHg 99%
    18:00 +16°C° 1.6 mm 2 m/S 730 mmHg 99%
    19:00 +16°C° 1.6 mm 2 m/S 730 mmHg 99%
    20:00 +16°C° 1.6 mm 2 m/S 730 mmHg 99%
    21:00 +15°C° 1.6 mm 2 m/S 730 mmHg 99%
    22:00 +15°C° 1.6 mm 2 m/S 729 mmHg 99%
    23:00 +14°C° 1.6 mm 3 m/S 729 mmHg 98%

    28 Juni, Freitag

    Zeit Temperatur Niederschläge Wind Luftdruck Luftfeuchtigkeit
    00:00 +14°C° 2.3 mm 3 m/S 729 mmHg 98%
    01:00 +13°C° 2.3 mm 3 m/S 728 mmHg 98%
    02:00 +13°C° 2.3 mm 3 m/S 728 mmHg 98%
    03:00 +13°C° 4.1 mm 4 m/S 728 mmHg 98%
    04:00 +12°C° 4.1 mm 4 m/S 728 mmHg 98%
    05:00 +12°C° 4.1 mm 5 m/S 727 mmHg 98%
    06:00 +12°C° 1.3 mm 4 m/S 727 mmHg 98%
    07:00 +12°C° 1.3 mm 4 m/S 727 mmHg 98%
    08:00 +12°C° 1.3 mm 4 m/S 727 mmHg 98%
    09:00 +12°C° 1.3 mm 5 m/S 727 mmHg 97%
    10:00 +10°C° 1.3 mm 5 m/S 727 mmHg 97%
    11:00 +10°C° 1.3 mm 6 m/S 728 mmHg 97%
    12:00 +10°C° 2.5 mm 6 m/S 728 mmHg 97%
    13:00 +10°C° 2.5 mm 6 m/S 728 mmHg 97%
    14:00 +9°C° 2.5 mm 6 m/S 728 mmHg 97%
    15:00 +9°C° 2.1 mm 6 m/S 729 mmHg 96%
    16:00 +9°C° 2.1 mm 6 m/S 729 mmHg 96%
    17:00 +9°C° 2.1 mm 5 m/S 729 mmHg 96%
    18:00 +9°C° 0.9 mm 6 m/S 729 mmHg 96%
    19:00 +9°C° 0.9 mm 6 m/S 730 mmHg 96%
    20:00 +9°C° 0.9 mm 6 m/S 730 mmHg 96%
    21:00 +9°C° 1.2 mm 6 m/S 730 mmHg 96%
    22:00 +8°C° 1.2 mm 7 m/S 730 mmHg 96%
    23:00 +8°C° 1.2 mm 7 m/S 730 mmHg 96%

    29 Juni, Samstag

    Zeit Temperatur Niederschläge Wind Luftdruck Luftfeuchtigkeit
    00:00 +8°C° 1.1 mm 7 m/S 730 mmHg 96%
    01:00 +6°C° 1.1 mm 7 m/S 730 mmHg 96%
    02:00 +6°C° 1.1 mm 7 m/S 730 mmHg 96%
    03:00 +6°C° 0.7 mm 7 m/S 730 mmHg 96%
    04:00 +6°C° 0.7 mm 7 m/S 730 mmHg 96%
    05:00 +7°C° 0.7 mm 6 m/S 730 mmHg 96%
    06:00 +7°C° 0.5 mm 6 m/S 731 mmHg 96%
    07:00 +5°C° 0.5 mm 6 m/S 731 mmHg 96%
    08:00 +5°C° 0.5 mm 6 m/S 732 mmHg 96%
    09:00 +5°C° 0.4 mm 6 m/S 732 mmHg 96%
    10:00 +5°C° 0.4 mm 6 m/S 733 mmHg 95%
    11:00 +5°C° 0.4 mm 6 m/S 734 mmHg 94%
    12:00 +5°C° 0.3 mm 6 m/S 734 mmHg 94%
    13:00 +7°C° 0.3 mm 5 m/S 735 mmHg 93%
    14:00 +7°C° 0.3 mm 5 m/S 735 mmHg 93%
    15:00 +7°C° 0.1 mm 5 m/S 736 mmHg 92%
    16:00 +7°C° 0.1 mm 4 m/S 736 mmHg 90%
    17:00 +8°C° 0.1 mm 4 m/S 737 mmHg 89%
    18:00 +9°C° 0 mm 3 m/S 737 mmHg 87%
    19:00 +9°C° 0 mm 2 m/S 738 mmHg 85%
    20:00 +9°C° 0 mm 2 m/S 738 mmHg 84%
    21:00 +8°C° 0 mm 2 m/S 738 mmHg 83%
    22:00 +8°C° 0 mm 2 m/S 739 mmHg 82%
    23:00 +7°C° 0 mm 2 m/S 739 mmHg 81%

    30 Juni, Sonntag

    Zeit Temperatur Niederschläge Wind Luftdruck Luftfeuchtigkeit
    00:00 +7°C° 0 mm 2 m/S 739 mmHg 83%
    01:00 +6°C° 0 mm 2 m/S 739 mmHg 85%
    02:00 +5°C° 0 mm 2 m/S 740 mmHg 86%
    03:00 +6°C° 0 mm 2 m/S 740 mmHg 84%
    04:00 +5°C° 0 mm 3 m/S 740 mmHg 81%
    05:00 +7°C° 0 mm 3 m/S 740 mmHg 78%
    06:00 +9°C° 0 mm 3 m/S 741 mmHg 69%
    07:00 +12°C° 0 mm 3 m/S 741 mmHg 60%
    08:00 +14°C° 0 mm 3 m/S 741 mmHg 51%
    09:00 +16°C° 0 mm 3 m/S 741 mmHg 48%
    10:00 +17°C° 0 mm 4 m/S 742 mmHg 45%
    11:00 +18°C° 0 mm 4 m/S 742 mmHg 41%
    12:00 +19°C° 0 mm 4 m/S 742 mmHg 41%
    13:00 +20°C° 0 mm 4 m/S 742 mmHg 41%
    14:00 +20°C° 0 mm 4 m/S 742 mmHg 41%
    15:00 +20°C° 0 mm 3 m/S 743 mmHg 44%
    16:00 +20°C° 0 mm 3 m/S 743 mmHg 47%
    17:00 +20°C° 0 mm 2 m/S 743 mmHg 51%
    18:00 +18°C° 0 mm 2 m/S 743 mmHg 58%
    19:00 +16°C° 0 mm 1 m/S 743 mmHg 66%
    20:00 +15°C° 0 mm 1 m/S 744 mmHg 73%
    21:00 +14°C° 0 mm 1 m/S 744 mmHg 75%
    22:00 +12°C° 0 mm 1 m/S 744 mmHg 78%
    23:00 +11°C° 0 mm 1 m/S 744 mmHg 80%
    Mehr zeigen